Overview Statistics Trail Chart Weather Telemetry Raw packets
 

This is the latest recevied weather packets stored in our database for station/object WX5KDM. If no packets are shown the sender has not sent any weather packets the latest 10 day(s).

<< 100 101 102 103 104 105 106 >>
Time Temp. Humidity Pressure Rain* Wind** Luminosity Snow
1787870273 32.78° C 63% 1014.2 hPa 0 mm - - -
1787869969 32.78° C 62% 1014.2 hPa 0 mm - - -
1787869668 32.22° C 64% 1014.1 hPa 0 mm - - -
1787869368 32.22° C 64% 1014.3 hPa 0 mm - - -
1787869067 32.78° C 64% 1014.3 hPa 0 mm - - -
1787868766 32.78° C 63% 1014.4 hPa 0 mm - - -
1787868465 32.78° C 64% 1014.3 hPa 0 mm - - -
1787868164 32.78° C 63% 1014.4 hPa 0 mm - - -
1787867859 32.22° C 66% 1014.2 hPa 0 mm - - -
1787867555 32.78° C 64% 1014.2 hPa 0 mm - - -
1787867255 32.22° C 65% 1014.2 hPa 0 mm - - -
1787866951 32.22° C 63% 1014.3 hPa 0 mm - - -
1787866646 32.22° C 64% 1014.3 hPa 0 mm - - -
1787866344 32.78° C 63% 1014.2 hPa 0 mm - - -
1787866039 32.78° C 64% 1014.4 hPa 0 mm - - -
1787865734 32.22° C 66% 1014.3 hPa 0 mm - - -
1787865430 32.78° C 64% 1014.5 hPa 0 mm - - -
1787865124 32.22° C 66% 1014.7 hPa 0 mm - - -
1787864821 31.67° C 66% 1014.5 hPa 0 mm - - -
1787864520 31.67° C 66% 1014.7 hPa 0 mm - - -
1787864215 32.22° C 65% 1014.6 hPa 0 mm - - -
1787863909 32.78° C 65% 1014.9 hPa 0 mm - - -
1787863608 32.78° C 63% 1015 hPa 0 mm - - -
1787863302 32.22° C 64% 1015 hPa 0 mm - - -
1787862999 32.22° C 64% 1015.1 hPa 0 mm - - -

* Rain latest hour (hover to see other rain measurements)
** Current wind speed in m/s (hover to see current wind gust speed)